EW3517 Weather Reports


Display with metric or nautical units.
time (UTC)temp
F
wind
direction
speed
MPH
gust
MPH
rain 1hr
in
rain 24hr
in
rain mn
in
humidity
%
barometer
mb
20260902163040 94 238 0.0 0.0 0.00 0.00 0.00 46 1011.7
20260902161548 93 293 0.0 0.0 0.00 0.00 0.00 49 1011.7
20260902160032 92 274 0.0 0.0 0.00 0.00 0.00 49 1011.7
20260902154530 92 288 0.0 0.0 0.00 0.00 0.00 50 1011.8
20260902153024 91 240 0.0 0.0 0.00 0.00 0.00 51 1011.9
20260902151521 90 157 0.0 1.0 0.00 0.00 0.00 52 1012.0
20260902150018 89 5 0.0 0.0 0.00 0.00 0.00 53 1012.0
20260902144528 88 23 0.0 0.0 0.00 0.00 0.00 54 1012.0
20260902143017 88 117 0.0 0.0 0.00 0.00 0.00 55 1012.0
20260902141520 87 74 0.0 1.0 0.00 0.00 0.00 57 1012.0
20260902140016 86 105 0.0 0.0 0.00 0.00 0.00 58 1011.9
20260902134523 85 334 0.0 0.0 0.00 0.00 0.00 60 1011.9
20260902133007 84 142 0.0 0.0 0.00 0.00 0.00 61 1011.9
20260902131509 83 235 0.0 0.0 0.00 0.00 0.00 62 1011.9
20260902130003 83 346 0.0 0.0 0.00 0.00 0.00 63 1011.8
20260902124502 82 110 0.0 1.0 0.00 0.00 0.00 64 1011.7
20260902123104 82 107 0.0 0.0 0.00 0.00 0.00 64 1011.5
20260902121611 82 169 0.0 0.0 0.00 0.00 0.00 64 1011.4
20260902120057 82 136 0.0 0.0 0.00 0.00 0.00 64 1011.3
20260902114554 82 131 0.0 0.0 0.00 0.00 0.00 63 1011.1
20260902113055 82 153 0.0 0.0 0.00 0.00 0.00 62 1011.0
20260902111552 82 149 0.0 0.0 0.00 0.00 0.00 61 1010.8
20260902110051 83 154 0.0 0.0 0.00 0.00 0.00 60 1010.8
20260902104552 83 159 0.0 0.0 0.00 0.00 0.00 60 1010.8
20260902103044 83 161 0.0 0.0 0.00 0.00 0.00 59 1010.8
20260902101541 83 163 0.0 0.0 0.00 0.00 0.00 59 1010.7
20260902100053 83 150 0.0 0.0 0.00 0.00 0.00 59 1010.6
20260902094540 84 155 0.0 0.0 0.00 0.00 0.00 59 1010.6
20260902093039 84 162 0.0 0.0 0.00 0.00 0.00 58 1010.6
20260902091538 84 144 0.0 0.0 0.00 0.00 0.00 58 1010.6
20260902090037 84 139 0.0 0.0 0.00 0.00 0.00 58 1010.5
20260902084536 84 155 0.0 0.0 0.00 0.00 0.00 57 1010.4
20260902083035 84 147 0.0 0.0 0.00 0.00 0.00 56 1010.5
20260902081534 84 138 0.0 0.0 0.00 0.00 0.00 55 1010.4
20260902080031 85 146 0.0 0.0 0.00 0.00 0.00 53 1010.5
20260902074530 85 165 0.0 0.0 0.00 0.00 0.00 52 1010.5
20260902073029 85 132 0.0 0.0 0.00 0.00 0.00 52 1010.4
20260902071527 86 144 0.0 0.0 0.00 0.00 0.00 51 1010.5
20260902070026 86 153 0.0 0.0 0.00 0.00 0.00 51 1010.6
20260902064527 86 134 0.0 0.0 0.00 0.00 0.00 51 1010.5
20260902063023 86 148 0.0 0.0 0.00 0.00 0.00 50 1010.6
20260902061522 87 145 0.0 0.0 0.00 0.00 0.00 49 1010.6
20260902060023 87 129 0.0 0.0 0.00 0.00 0.00 49 1010.5
20260902054518 88 124 0.0 0.0 0.00 0.00 0.00 48 1010.4
20260902053015 88 161 0.0 0.0 0.00 0.00 0.00 47 1010.3
20260902051516 88 140 0.0 0.0 0.00 0.00 0.00 47 1010.2
20260902050009 88 126 0.0 0.0 0.00 0.00 0.00 46 1010.3
20260902044508 88 167 0.0 0.0 0.00 0.00 0.00 45 1010.2
20260902043008 89 182 0.0 0.0 0.00 0.00 0.00 45 1010.3
20260902041506 89 146 0.0 0.0 0.00 0.00 0.00 45 1010.4
20260902040007 89 137 0.0 0.0 0.00 0.00 0.00 45 1010.3
20260902034506 89 128 0.0 0.0 0.00 0.00 0.00 45 1010.3
20260902033005 89 163 0.0 0.0 0.00 0.00 0.00 45 1010.2
20260902031504 89 148 0.0 0.0 0.00 0.00 0.00 44 1010.0
20260902030003 90 148 0.0 0.0 0.00 0.00 0.00 43 1009.8
20260902024503 91 148 0.0 0.0 0.00 0.00 0.00 42 1009.6
20260902023002 91 152 0.0 0.0 0.00 0.00 0.00 41 1009.3
20260902021502 92 147 0.0 0.0 0.00 0.00 0.00 40 1009.1
20260902020001 92 134 0.0 0.0 0.00 0.00 0.00 39 1008.8
20260902014503 93 152 0.0 0.0 0.00 0.00 0.00 38 1008.7
20260902013100 94 114 0.0 0.0 0.00 0.00 0.00 36 1008.6
20260902011559 95 80 0.0 0.0 0.00 0.00 0.00 34 1008.5
20260902010109 96 119 0.0 0.0 0.00 0.00 0.00 32 1008.5
20260902004559 97 144 0.0 0.0 0.00 0.00 0.00 31 1008.4
20260902003058 98 144 0.0 0.0 0.00 0.00 0.00 31 1008.4
20260902001615 98 257 0.0 0.0 0.00 0.00 0.00 31 1008.5
20260902000056 99 50 0.0 0.0 0.00 0.00 0.00 30 1008.5
20260901234554 99 132 0.0 0.0 0.00 0.00 0.00 29 1008.5
20260901233056 100 246 0.0 0.0 0.00 0.00 0.00 29 1008.6
20260901231550 100 132 0.0 0.0 0.00 0.00 0.00 29 1008.7
20260901230049 100 107 0.0 0.0 0.00 0.00 0.00 29 1008.8
20260901224553 100 153 0.0 0.0 0.00 0.00 0.00 28 1008.8
20260901223046 100 253 0.0 0.0 0.00 0.00 0.00 28 1008.7
20260901221554 100 182 0.0 0.0 0.00 0.00 0.00 29 1008.8
20260901220041 100 132 0.0 0.0 0.00 0.00 0.00 29 1008.8
20260901214552 99 78 0.0 0.0 0.00 0.00 0.00 29 1009.0
20260901213034 101 257 0.0 0.0 0.00 0.00 0.00 28 1009.2
20260901211532 100 150 0.0 1.0 0.00 0.00 0.00 29 1009.3
20260901210027 100 267 0.0 0.0 0.00 0.00 0.00 28 1009.5
20260901204532 101 165 0.0 0.0 0.00 0.00 0.00 28 1009.7
20260901203019 100 340 0.0 0.0 0.00 0.00 0.00 28 1010.0
20260901201518 100 132 0.0 0.0 0.00 0.00 0.00 27 1010.0
20260901200017 101 315 0.0 0.0 0.00 0.00 0.00 27 1010.4
20260901194514 101 131 0.0 0.0 0.00 0.00 0.00 27 1010.6
20260901193012 99 145 0.0 0.0 0.00 0.00 0.00 29 1010.6
20260901191520 100 260 0.0 0.0 0.00 0.00 0.00 27 1010.9
20260901190007 99 277 0.0 0.0 0.00 0.00 0.00 29 1011.0
20260901184505 100 134 0.0 1.0 0.00 0.00 0.00 29 1011.2
20260901183001 99 142 0.0 0.0 0.00 0.00 0.00 30 1011.4
20260901181600 99 276 0.0 0.0 0.00 0.00 0.00 30 1011.7
20260901180056 98 298 0.0 0.0 0.00 0.00 0.00 32 1011.9
20260901174555 97 119 0.0 0.0 0.00 0.00 0.00 33 1012.0
20260901173056 97 244 0.0 0.0 0.00 0.00 0.00 34 1012.2
20260901171557 97 144 0.0 0.0 0.00 0.00 0.00 34 1012.3
20260901170050 96 277 0.0 0.0 0.00 0.00 0.00 35 1012.4
20260901164546 96 263 0.0 0.0 0.00 0.00 0.00 36 1012.6